ARIANE 5 R/B, 41863

Orbit data source: Space-Track

ARIANE 5 R/B, 41863 is space debris originally from a launch on Thu, 17 Nov 2016 UTC launched from the French Guiana (FRGUI). Debris objects in space refer to the collection of defunct objects orbiting the Earth. Examples of debris include non-operational satellites, rocket bodies, and fragments generated from explosions, collisions, or faulty payload assembly.

Loading next visibility...
ARIANE 5 R/B details
Identifier
41863, 2016-069E
Orbit
Active
Last TLE update2 days ago
Origin
Flag of FRArianespace (FR)
ManufacturerADS/Bremen
MissionSpacecraft
Bus & MotorEPS+, AESTUS
Mass3,057 kg wet, 3,057 kg dry
Launch date (UTC)
2016-11-17 (8 years ago)
Launch vehicleUnknown
Launch site
French Guiana (FRGUI)
Object type
Payload
Rocket body
Debris
Shape & HBRCone + Cyl, 4 m
Radar Cross Section18.225 m², Large (>1 m²)

Expand to show TLE details & history

TLE from 2 days ago
0 ARIANE 5 R/B
1 41863U 16069E   24359.77261215  .00000005  00000-0  00000-0 0  9993
2 41863  55.1536 112.7682 0001610 334.8590  25.1062  1.73306595 51287
Epoch: 2024-12-24T18:32Z
Definitive object data (Epoch: 2024-12-24T18:32:33.689Z)
Latitude-0.00002°
Longitude100.84359°
Altitude22,894.762 km
Speed3.69 km/s
True Right ascension07h 31m 02s
True Declination0° 00' 00"
Sunlit
Object was in daylight at TLE epoch
Visualization TLE readout
Latitude48.86893°
Longitude153.50742°
Altitude22,905.228 km
Speed3.69 km/s
Apparent Right ascension10h 12m 27s
Apparent Declination48° 01' 30"
Sunlit
Object is in daylight
Visualization observer readout
Local Sidereal Time14:00:28
Azimuth300.959° NW
Elevation49.147°
Doppler factor1
Orbital elements
Apogee altitude22,903.481 km
Perigee altitude22,894.054 km
Semi-major axis29,276.904 km
Eccentricity0.000161
Inclination55.1536°
RAAN112.7682°
Arg. of periapsis334.859°
True anomaly25.11403°
Mean anomaly25.1062°
Eccentric anomaly25.11011°
Mean motion0.43327 °/min
BSTARUnknown
Orbital period830.9 mins
Loading maneuver chart data...
Loading historical data...
Loading historical data...
Loading historical data...
Loading historical data...
Loading historical data...
Loading historical data...
Loading historical data...

ARIANE 5 R/B Visibility forecast

Observer location: undefined°, undefined

Span
Click to sort rows by Start time (UTC) header in descending order
Start Az.
Max El. time (UTC)
Max El. Az.
Max El.
End time (UTC)
End Az.
334 mins2024-12-26 14:38:35.545Z300.927° NW2024-12-26 16:46:35.545Z52.001° ENE44.618°2024-12-26 20:12:35.545Z162.389° S
|